Time,TemperatureF,DewpointF,PressureIn,WindDirection,WindDirectionDegrees,WindSpeedMPH,WindSpeedGustMPH,Humidity,HourlyPrecipIn,Conditions,Clouds,dailyrainin,SoftwareType,DateUTC
2015-04-28 00:00:00,57.2,46.0,29.92,East,86,0.0,0.0,66,0.00,,---,0.00,VWS V13.01,2015-04-28 07:00:00,
2015-04-28 00:10:00,56.8,46.4,29.92,East,86,0.0,0.0,68,0.00,,---,0.00,VWS V13.01,2015-04-28 07:10:00,
2015-04-28 00:20:00,56.7,46.2,29.92,East,86,0.0,0.0,68,0.00,,---,0.00,VWS V13.01,2015-04-28 07:20:00,
2015-04-28 00:30:00,56.7,46.2,29.92,East,86,0.0,0.0,68,0.00,,---,0.00,VWS V13.01,2015-04-28 07:30:00,
2015-04-28 00:40:00,56.3,46.3,29.92,East,86,0.0,0.0,69,0.00,,---,0.00,VWS V13.01,2015-04-28 07:40:00,
2015-04-28 00:50:00,56.1,46.1,29.92,East,86,0.0,0.0,69,0.00,,---,0.00,VWS V13.01,2015-04-28 07:50:00,
2015-04-28 01:00:00,55.9,45.9,29.92,East,86,0.0,0.0,69,0.00,,---,0.00,VWS V13.01,2015-04-28 08:00:00,
2015-04-28 01:10:00,55.6,45.6,29.92,East,86,0.0,0.0,69,0.00,,---,0.00,VWS V13.01,2015-04-28 08:10:00,
2015-04-28 01:20:00,55.2,45.6,29.92,East,86,0.0,0.0,70,0.00,,---,0.00,VWS V13.01,2015-04-28 08:20:00,
2015-04-28 01:30:00,55.0,45.5,29.92,East,86,0.0,0.0,70,0.00,,---,0.00,VWS V13.01,2015-04-28 08:30:00,
2015-04-28 01:40:00,54.9,45.7,29.92,East,86,0.0,0.0,71,0.00,,---,0.00,VWS V13.01,2015-04-28 08:40:00,
2015-04-28 01:50:00,54.9,45.7,29.92,East,86,0.0,0.0,71,0.00,,---,0.00,VWS V13.01,2015-04-28 08:50:00,
2015-04-28 02:00:00,54.9,45.3,29.92,East,86,0.0,0.0,70,0.00,,---,0.00,VWS V13.01,2015-04-28 09:00:00,
2015-04-28 02:10:00,54.9,45.3,29.92,East,86,0.0,0.0,70,0.00,,---,0.00,VWS V13.01,2015-04-28 09:10:00,
2015-04-28 02:20:00,54.7,45.1,29.92,East,86,0.0,0.0,70,0.00,,---,0.00,VWS V13.01,2015-04-28 09:20:00,
2015-04-28 02:30:00,54.7,45.1,29.92,East,86,0.0,0.0,70,0.00,,---,0.00,VWS V13.01,2015-04-28 09:30:00,
2015-04-28 02:40:00,54.5,44.5,29.92,East,86,0.0,0.0,69,0.00,,---,0.00,VWS V13.01,2015-04-28 09:40:00,
2015-04-28 02:50:00,54.3,44.0,29.92,East,86,0.0,0.0,68,0.00,,---,0.00,VWS V13.01,2015-04-28 09:50:00,
2015-04-28 03:00:00,54.3,44.0,29.92,East,86,0.0,0.0,68,0.00,,---,0.00,VWS V13.01,2015-04-28 10:00:00,
2015-04-28 03:10:00,54.3,43.6,29.92,East,86,0.0,6.3,67,0.00,,---,0.00,VWS V13.01,2015-04-28 10:10:00,
2015-04-28 03:20:00,54.0,43.3,29.92,East,86,0.0,0.0,67,0.00,,---,0.00,VWS V13.01,2015-04-28 10:20:00,
2015-04-28 03:30:00,54.0,43.3,29.92,East,82,0.0,5.4,67,0.00,,---,0.00,VWS V13.01,2015-04-28 10:30:00,
2015-04-28 03:40:00,54.0,43.3,29.92,East,82,0.0,0.0,67,0.00,,---,0.00,VWS V13.01,2015-04-28 10:40:00,
2015-04-28 03:50:00,54.0,43.3,29.92,East,82,0.0,0.0,67,0.00,,---,0.00,VWS V13.01,2015-04-28 10:50:00,
2015-04-28 04:00:00,54.0,43.3,29.92,East,82,0.0,0.0,67,0.00,,---,0.00,VWS V13.01,2015-04-28 11:00:00,
2015-04-28 04:10:00,54.0,43.3,29.92,East,82,0.0,0.0,67,0.00,,---,0.00,VWS V13.01,2015-04-28 11:10:00,
2015-04-28 04:20:00,54.3,43.6,29.95,East,82,0.0,0.0,67,0.00,,---,0.00,VWS V13.01,2015-04-28 11:20:00,
2015-04-28 04:30:00,54.5,43.4,29.95,East,82,0.0,0.0,66,0.00,,---,0.00,VWS V13.01,2015-04-28 11:30:00,
2015-04-28 04:40:00,54.5,43.0,29.95,East,82,0.0,0.0,65,0.00,,---,0.00,VWS V13.01,2015-04-28 11:40:00,
2015-04-28 04:50:00,54.3,42.4,29.92,East,82,0.0,0.0,64,0.00,,---,0.00,VWS V13.01,2015-04-28 11:50:00,
2015-04-28 05:00:00,54.3,42.0,29.92,East,82,0.0,0.0,63,0.00,,---,0.00,VWS V13.01,2015-04-28 12:00:00,
2015-04-28 05:10:00,54.3,41.6,29.92,East,82,0.0,0.0,62,0.00,,---,0.00,VWS V13.01,2015-04-28 12:10:00,
2015-04-28 05:20:00,54.1,41.0,29.92,East,82,0.0,0.0,61,0.00,,---,0.00,VWS V13.01,2015-04-28 12:20:00,
2015-04-28 05:30:00,54.3,41.2,29.92,East,82,0.0,0.0,61,0.00,,---,0.00,VWS V13.01,2015-04-28 12:30:00,
2015-04-28 05:40:00,54.5,40.9,29.92,East,82,0.0,0.0,60,0.00,,---,0.00,VWS V13.01,2015-04-28 12:40:00,
2015-04-28 05:50:00,54.7,40.7,29.92,East,82,0.0,0.0,59,0.00,,---,0.00,VWS V13.01,2015-04-28 12:50:00,
2015-04-28 06:00:00,54.9,40.8,29.92,East,82,0.0,0.0,59,0.00,,---,0.00,VWS V13.01,2015-04-28 13:00:00,
2015-04-28 06:10:00,54.9,41.7,29.92,East,82,0.0,0.0,61,0.00,,---,0.00,VWS V13.01,2015-04-28 13:10:00,
2015-04-28 06:19:00,54.9,41.7,29.92,East,82,0.0,0.0,61,0.00,,---,0.00,VWS V13.01,2015-04-28 13:19:00,
2015-04-28 06:30:00,55.2,42.0,29.92,East,82,0.0,0.0,61,0.00,,---,0.00,VWS V13.01,2015-04-28 13:30:00,
2015-04-28 06:39:00,55.4,42.6,29.92,East,82,0.0,0.0,62,0.00,,---,0.00,VWS V13.01,2015-04-28 13:39:00,
2015-04-28 06:50:00,55.4,42.6,29.92,East,82,0.0,0.0,62,0.00,,---,0.00,VWS V13.01,2015-04-28 13:50:00,
2015-04-28 07:00:00,55.6,43.2,29.92,East,82,0.0,0.0,63,0.00,,---,0.00,VWS V13.01,2015-04-28 14:00:00,
2015-04-28 07:09:00,55.6,43.2,29.92,East,82,0.0,0.0,63,0.00,,---,0.00,VWS V13.01,2015-04-28 14:09:00,
2015-04-28 07:20:00,55.9,43.5,29.95,East,82,0.0,0.0,63,0.00,,---,0.00,VWS V13.01,2015-04-28 14:20:00,
2015-04-28 07:30:00,55.9,44.0,29.95,East,82,0.0,0.0,64,0.00,,---,0.00,VWS V13.01,2015-04-28 14:30:00,
2015-04-28 07:40:00,56.1,44.1,29.95,East,82,0.0,0.0,64,0.00,,---,0.00,VWS V13.01,2015-04-28 14:40:00,
2015-04-28 07:49:00,56.7,44.6,29.95,East,82,0.0,0.0,64,0.00,,---,0.00,VWS V13.01,2015-04-28 14:49:00,
2015-04-28 08:00:00,57.0,45.0,29.95,East,82,0.0,0.0,64,0.00,,---,0.00,VWS V13.01,2015-04-28 15:00:00,
2015-04-28 08:10:00,57.4,45.3,29.95,East,82,0.0,0.0,64,0.00,,---,0.00,VWS V13.01,2015-04-28 15:10:00,
2015-04-28 08:20:00,57.9,45.8,29.95,East,82,0.0,0.0,64,0.00,,---,0.00,VWS V13.01,2015-04-28 15:20:00,
2015-04-28 08:30:00,58.5,46.8,29.95,East,82,0.0,0.0,65,0.00,,---,0.00,VWS V13.01,2015-04-28 15:30:00,
2015-04-28 08:40:00,59.0,46.8,29.95,East,82,0.0,0.0,64,0.00,,---,0.00,VWS V13.01,2015-04-28 15:40:00,